Location: Casilda
(33.0440°S, 61.1680°W)
Time: 09:17:16
(UTC-03:00)

ISS - Pass Details

Date: 14 August 2022
Orbit: 412 x 420 km, 51.6° (Epoch: 13 August)

Event Time Altitude Azimuth Distance (km) Brightness Sun altitude
Rises 19:54:27 0° 335° (NNW) 2,345 0.5 -17.0°
Reaches altitude 10° 19:56:40 10° 345° (NNW) 1,491 -0.7 -17.5°
Enters shadow 19:59:10 30° 30° (NNE) 783 -2.6 -18.0°
